Regional Weather Roundup
Issued by NWS

Home | Current Version | Previous Version | Graphics & Text | Print | Product List | Glossary On
Versions: 1 2 3 4 5 6 7 8 9 10 11 12 13 14 15 16 17 18 19 20 21 22 23 24 25 26 27 28 29 30 31 32 33 34 35 36 37 38 39 40 41 42 43 44 45 46 47 48 49 50
052
ASUS45 KSLC 101010
RWRUT

UTAH REGIONAL WEATHER ROUNDUP
NATIONAL WEATHER SERVICE SALT LAKE CITY UT
300 AM MST WED FEB 10 2016

UTZ001>011-023>025-101100-

NORTHERN UTAH

CITY           SKY/WX    TMP DP  RH WIND       PRES   REMARKS
BRIGHAM CITY   CLOUDY     8   4  84 CALM      30.48S VSB 1/4
HILL AFB       FRZ DRZL  21  18  86 W5        30.45S VSB<1/4 WCI  15
LOGAN          FOG        0  -1  96 CALM      30.47F VSB 1/4
OGDEN          CLOUDY    26  25  96 CALM      30.45F
PROVO AIRPORT    N/A    N/A N/A N/A CALM      30.46S VSB<1/4
SALT LAKE CITY FOG       27  25  92 CALM      30.46F VSB 1/4
VERNAL         CLOUDY    11   7  84 W5        30.48F WCI   3
WENDOVER       CLOUDY    28  27  93 CALM      30.48S
HEBER CITY     PTCLDY     5   1  85 CALM      30.44S
WEST JORDAN    PTCLDY    25  21  86 S3        30.46F

$$

UTZ012>022-026-027-101100-

SOUTHERN/CENTRAL UTAH

CITY           SKY/WX    TMP DP  RH WIND       PRES   REMARKS
BLANDING       PTCLDY    27  17  65 NW7       30.49S WCI  19
BRYCE CANYON   PTCLDY    16   6  65 W9        30.47F WCI   4
CEDAR CITY     PTCLDY    17  14  88 CALM      30.40F FOG
DELTA          CLOUDY     8   6  91 N6        30.45S VSB 1/4 WCI  -2
HANKSVILLE     CLOUDY    25  25 100 CALM      30.49S
MILFORD        FOG        6   2  83 S6        30.43F VSB 1/4 WCI  -4
MOAB/CYNLANDS  MOCLDY    22  20  92 CALM      30.44F
PRICE          PTCLDY    22  16  78 N6        30.43S WCI  14
ST GEORGE      MOSUNNY   39  25  56 CALM      30.37S

$$

REGIONAL REPORTS     COLORADO/ARIZONA

CITY           SKY/WX    TMP DP  RH WIND       PRES   REMARKS
CRAIG, CO      CLOUDY     0  -5  79 CALM      30.46S
GRAND JUNCTION CLOUDY    21  19  92 NE3       30.46S
RIFLE          CLOUDY    14   9  80 E8        30.49S WCI   3
MONTROSE       CLOUDY    23  14  68 S9        30.49R WCI  13
CORTEZ         CLOUDY    20  16  84 E8        30.44R WCI  10
PAGE, AZ       CLEAR     35  27  72 CALM      30.42S
GRAND CANYON   PTCLDY    24  16  71 CALM      30.43S
KINGMAN        PTCLDY    39  23  52 E6        30.29F WCI  35
FLAGSTAFF      CLEAR     24  14  65 CALM      30.42S

$$

REGIONAL REPORTS    NEVADA/IDAHO/WYOMING

CITY           SKY/WX    TMP DP  RH WIND       PRES   REMARKS
LAS VEGAS, NV  MOCLDY    51  28  41 SW3       30.23S
ELY            MOCLDY    10   4  76 S20       30.42F WCI  -9
ELKO           CLOUDY    10   6  84 E6        30.45S WCI   0
POCATELLO, ID  CLOUDY    15  13  91 NE3       30.43R
BURLEY         PTCLDY    24  22  91 N3        30.37F
EVANSTON, WY   CLOUDY    27  18  69 S5        30.41S WCI  22
ROCK SPRINGS   CLOUDY    30  18  60 SW9       30.37F WCI  22

$$




USA.gov is the U.S. government's official web portal to all federal, state and local government web resources and services.